Theta_e
306 306 306 306 306 306 306 305 305 306 305 306 306 307 307 308 308 307 307 307 305 302 302 301 300 300 300 299 299 298 299 299 300 300 302 304 307 309 310 310 309 305 303 303 303 304 303 304 304 307 313 317 319 321 321 323 325 326 328 330 330 329 328 327 327 329 331 331 329 328 329 330 329 325 323 325 325 324 324 322 320 319 318 319 319 318 316 316
305 306 305 305 305 306 305 305 305 305 305 306 306 307 307 307 307 305 306 305 302 302 303 302 300 300 300 300 299 298 299 299 300 302 304 306 309 310 310 309 306 303 303 303 304 304 304 304 304 307 313 316 318 321 322 324 325 326 329 330 329 327 327 327 328 330 330 331 328 328 329 330 328 325 324 327 326 324 325 323 320 319 317 317 317 317 316 315
305 306 305 305 305 305 305 305 305 305 305 306 306 307 307 307 307 304 304 304 302 303 304 302 300 300 300 300 300 299 300 300 300 303 304 306 310 310 308 306 304 302 303 303 304 304 304 304 304 306 313 317 318 321 323 324 324 325 329 331 329 326 328 328 330 332 330 329 328 328 329 329 327 325 325 328 326 326 327 324 322 322 319 317 316 316 315 315
305 305 305 305 305 305 304 305 305 305 305 306 306 307 307 306 306 304 303 302 301 303 303 301 300 300 300 301 302 300 301 301 301 303 303 305 309 308 304 303 303 302 302 302 303 304 305 305 304 306 313 317 318 320 322 324 325 325 327 330 328 325 328 328 330 331 330 329 329 329 328 328 326 325 326 327 327 329 327 324 324 322 319 316 315 316 316 315
305 305 305 305 305 304 304 305 304 305 305 306 306 307 307 306 305 303 302 301 301 302 302 300 300 301 301 302 303 302 301 302 302 302 302 303 305 304 303 303 303 302 302 302 303 304 304 305 304 306 312 316 317 320 322 323 325 325 325 329 329 325 327 328 328 330 329 329 329 329 329 328 326 326 327 327 330 331 326 323 321 319 317 316 315 316 316 315
305 305 305 304 304 304 304 304 304 304 305 306 306 306 306 306 305 302 301 301 301 301 301 301 301 301 302 303 303 302 302 302 301 302 302 302 303 303 303 303 303 302 302 302 303 304 304 304 304 304 310 315 317 319 321 322 325 326 325 327 328 327 328 328 327 328 328 329 330 329 328 326 326 327 326 326 328 327 323 321 320 318 318 317 316 316 316 315
305 304 305 304 304 304 304 304 304 304 305 306 306 306 305 304 303 301 300 301 301 301 301 301 301 301 302 303 304 303 303 302 302 302 303 303 303 303 303 303 303 302 302 303 304 304 303 303 304 304 309 314 317 318 320 323 324 327 326 325 326 327 328 327 326 327 328 329 329 328 327 327 327 327 324 324 323 322 321 320 319 318 318 317 316 316 315 314
304 304 304 304 304 304 303 303 303 304 305 305 305 305 304 302 301 301 301 301 301 301 301 301 301 302 303 304 304 303 304 303 302 303 303 303 303 303 303 303 303 302 303 304 304 305 303 303 304 304 307 311 316 318 320 323 325 327 327 325 323 325 327 326 326 327 327 326 326 326 327 326 325 324 322 321 320 320 320 319 318 318 317 316 315 314 314 313
304 304 304 304 304 303 303 303 303 304 305 305 304 303 302 301 300 301 301 301 301 301 301 301 301 303 303 304 304 303 303 303 303 303 303 303 303 303 302 303 303 302 303 303 304 305 304 303 304 303 305 309 314 318 320 324 326 325 325 323 323 325 326 325 325 325 325 323 324 324 324 323 321 322 322 318 319 319 318 318 317 316 316 315 314 313 314 312
304 304 304 303 303 303 303 303 304 304 304 305 303 302 301 300 301 301 301 301 301 301 301 301 301 302 304 304 304 304 303 303 303 303 303 302 302 302 302 303 303 302 303 303 304 306 304 304 304 304 304 307 311 316 321 323 325 323 323 323 323 325 325 324 324 323 322 322 323 324 323 321 319 323 324 317 317 319 318 318 317 317 317 315 313 312 312 311
304 304 303 303 303 303 303 303 304 304 304 304 302 301 301 300 301 301 301 301 301 301 301 301 301 302 304 304 303 304 303 303 303 302 302 302 302 302 303 303 302 303 303 304 305 306 306 306 306 304 303 306 309 315 321 322 322 322 322 323 323 323 324 324 324 322 323 323 322 323 322 321 320 324 323 317 318 318 318 318 317 317 317 315 313 311 310 309
304 303 303 303 303 303 303 303 304 304 304 303 301 300 301 301 301 301 302 302 301 301 301 301 301 301 304 304 303 304 303 303 302 302 302 302 303 303 303 303 303 303 303 304 306 305 304 306 307 305 304 307 311 317 322 321 321 322 323 325 324 323 323 323 323 323 324 323 322 323 325 323 323 322 319 317 318 318 317 318 317 317 316 314 312 311 311 309
303 303 303 303 303 303 303 303 303 304 303 302 300 300 301 301 302 302 302 302 302 302 302 302 302 302 304 304 303 303 303 303 302 302 301 301 303 303 303 303 302 303 303 304 305 304 303 304 306 307 306 307 312 318 321 320 322 323 324 326 326 326 325 322 321 323 324 323 321 326 332 327 321 318 316 317 318 318 318 317 316 315 314 313 311 311 310 309
303 303 303 303 303 303 303 303 303 303 302 301 300 301 301 302 302 302 302 301 301 301 303 304 303 303 304 303 303 303 303 302 302 301 301 302 302 303 303 303 303 303 303 303 303 303 302 303 306 307 306 306 312 318 320 321 322 322 324 325 326 329 326 321 321 323 325 323 320 326 334 327 318 316 315 317 317 318 318 317 315 314 313 312 311 310 309 310
303 303 303 303 303 302 303 303 302 302 301 300 300 301 301 302 302 302 301 301 301 301 304 305 303 303 304 303 302 302 302 302 302 301 301 302 302 303 303 303 303 303 303 303 303 302 302 304 306 307 307 308 313 319 321 323 323 322 323 323 323 326 325 322 321 322 325 322 318 325 333 326 318 316 315 316 317 318 318 317 315 314 313 313 312 311 310 310
303 303 303 303 302 302 303 303 302 302 300 300 301 301 302 302 301 301 301 301 300 302 305 306 304 302 304 304 303 302 302 302 302 302 302 302 302 303 303 303 303 303 303 303 303 302 303 305 307 308 311 314 316 320 322 324 324 323 323 322 321 323 324 323 322 322 323 322 320 325 329 324 319 315 314 316 317 317 317 316 316 315 314 314 313 312 311 310
303 303 303 302 302 302 302 302 302 301 300 300 301 301 301 301 301 301 301 300 300 302 304 304 302 302 303 303 303 303 302 301 301 302 303 303 302 303 303 304 304 304 304 303 303 305 305 306 307 309 313 317 318 320 323 324 325 323 322 322 320 321 322 323 323 322 322 323 323 324 325 322 319 316 315 316 317 318 318 317 316 315 315 314 313 313 312 310
303 303 302 302 302 302 302 302 301 300 300 301 301 301 301 301 300 300 300 300 300 302 303 302 301 303 305 303 303 303 301 301 301 302 303 303 303 303 304 304 304 305 305 304 304 305 306 307 309 311 315 319 319 320 324 325 324 322 321 321 320 320 320 321 323 322 322 324 324 324 323 320 317 315 316 316 317 318 318 317 317 316 315 315 314 314 313 311
303 302 302 302 302 302 302 301 300 300 300 301 301 301 301 300 300 300 299 300 302 303 303 302 302 304 305 304 303 302 301 301 302 303 303 303 303 303 303 303 304 305 305 304 304 305 307 309 312 313 315 318 319 319 322 323 321 321 322 321 321 320 319 319 322 321 322 324 323 324 322 318 317 316 316 317 317 318 318 317 317 316 315 315 315 315 314 312
303 302 302 302 302 302 301 300 300 300 301 301 301 300 300 300 300 301 300 301 301 301 303 304 302 303 303 304 302 301 302 303 303 303 303 303 303 304 303 303 305 304 303 304 304 307 309 311 313 314 315 317 317 316 317 320 320 320 322 321 320 320 319 319 321 320 321 323 322 322 320 318 318 317 316 317 317 318 318 317 317 317 316 315 315 316 315 314
302 302 302 301 300 300 301 300 300 301 301 300 300 300 300 300 300 300 300 301 299 298 301 303 300 301 302 302 301 300 301 304 304 304 304 303 302 304 304 304 304 303 304 305 306 310 312 311 313 313 312 312 312 313 317 319 319 320 320 320 319 319 318 318 319 320 321 323 320 318 319 319 318 317 316 316 317 318 318 318 318 317 317 316 316 316 316 316
302 302 302 300 299 299 300 300 300 300 300 299 299 299 298 298 298 297 298 301 300 297 300 301 299 302 302 300 300 299 301 304 305 305 304 303 304 304 305 305 305 306 308 308 309 311 314 314 314 312 309 310 311 314 319 319 319 320 318 319 320 318 317 317 316 318 323 323 320 318 319 319 317 316 315 315 317 318 317 318 319 318 317 317 316 316 316 316
302 302 301 299 298 299 300 300 300 300 300 299 299 299 298 299 298 298 299 301 301 300 301 302 301 303 303 302 299 299 303 304 305 306 303 305 306 304 305 307 308 309 311 312 310 310 314 314 312 309 308 311 315 316 319 321 321 320 318 320 320 317 318 319 316 318 322 322 320 319 319 319 317 316 316 315 316 316 316 316 317 318 318 318 317 317 316 316
302 302 301 298 299 300 300 300 299 299 299 299 299 299 299 300 299 300 300 300 301 302 301 299 300 303 303 302 300 300 304 303 304 305 303 305 307 303 305 307 308 310 311 311 311 311 313 311 308 309 310 313 318 319 321 322 322 321 320 320 319 317 320 320 318 318 321 321 321 321 322 321 318 319 318 315 315 315 315 315 316 317 317 317 316 316 317 316
302 302 300 298 299 300 299 299 299 298 299 299 299 299 298 299 299 299 300 300 301 301 300 299 301 303 302 300 300 301 303 304 304 304 303 304 306 306 306 305 307 312 311 312 312 312 312 309 308 312 313 314 318 320 319 321 323 322 322 320 319 319 319 318 318 319 321 322 321 321 326 325 320 321 321 317 316 316 315 315 316 316 316 316 316 317 317 316
303 302 299 299 300 299 300 300 299 299 300 300 299 298 299 299 298 298 299 300 300 299 301 302 303 303 302 301 300 301 304 306 304 303 303 304 305 305 307 306 307 309 309 311 311 311 310 308 310 314 315 315 318 318 314 316 324 324 321 321 321 320 319 318 319 320 323 324 320 320 325 327 323 323 322 319 319 318 316 316 316 316 315 315 316 316 316 316
303 301 298 299 300 299 301 301 299 299 301 300 298 298 299 299 299 297 298 301 299 299 301 303 303 303 302 301 301 303 307 306 305 304 302 303 303 304 308 309 309 308 306 308 311 310 308 308 311 313 315 316 318 316 311 315 325 323 320 321 322 320 319 319 320 321 322 322 322 321 322 326 327 324 320 318 320 320 317 317 316 316 316 315 315 315 315 316
302 299 297 299 300 299 300 300 299 299 300 301 299 299 299 299 299 298 300 301 298 299 302 302 302 302 301 301 302 305 306 304 307 307 302 301 302 305 309 308 308 309 306 309 314 310 306 308 309 311 314 315 314 312 310 314 322 321 319 321 321 321 320 320 322 322 321 322 325 322 318 325 328 321 317 317 320 321 319 318 317 315 315 315 315 314 314 315
301 298 297 299 299 299 299 299 300 300 300 301 300 300 299 298 298 298 300 300 298 299 301 302 303 302 302 304 304 304 303 303 305 304 302 303 303 305 308 306 307 310 309 310 313 309 306 305 304 307 312 313 311 310 310 313 319 319 318 320 321 321 322 322 323 323 322 323 325 319 315 323 326 319 317 318 320 322 321 319 318 316 315 315 314 314 314 314
298 297 297 298 299 299 300 300 300 300 299 300 299 298 298 298 298 300 301 299 299 300 301 302 303 301 301 305 306 304 304 303 302 303 304 305 304 305 305 302 305 310 310 310 309 307 306 303 301 305 308 307 308 310 310 312 317 319 318 320 321 322 323 323 325 325 324 323 321 314 312 320 324 319 319 320 320 321 321 319 318 317 315 315 315 314 314 313
297 297 298 299 299 299 300 300 299 299 299 298 298 297 298 299 300 301 302 299 299 301 301 301 301 300 300 303 304 303 304 304 302 304 306 305 305 305 306 305 307 310 311 311 310 309 308 307 306 306 305 305 309 314 313 314 319 319 318 320 321 322 324 323 323 324 324 323 318 311 311 317 322 319 317 318 317 317 319 320 319 317 316 316 315 314 313 313
298 297 298 299 299 299 300 299 297 298 298 297 297 298 299 300 300 300 300 299 300 299 300 300 300 301 300 301 302 301 302 304 303 303 303 304 305 303 304 305 306 309 312 311 311 312 311 309 308 307 305 305 311 319 319 319 321 318 318 322 324 324 324 323 322 321 322 320 313 311 315 318 320 318 315 315 314 314 316 318 317 317 317 316 315 314 313 312
298 297 297 298 299 299 299 298 297 298 298 298 298 299 301 302 300 298 298 300 300 297 297 299 298 298 299 302 302 300 301 303 302 303 302 303 305 303 303 303 302 307 311 310 310 312 312 312 310 310 309 306 310 319 323 321 320 320 320 321 323 323 322 322 320 318 320 317 311 311 316 319 319 316 314 314 311 309 310 311 312 312 313 313 313 313 313 312
299 298 296 297 297 298 298 297 297 298 298 298 300 301 303 302 299 298 300 301 299 296 296 297 297 298 300 301 300 299 303 304 302 303 304 304 306 305 305 304 302 305 308 309 309 310 313 314 312 311 310 307 307 310 315 319 322 321 317 315 318 319 321 321 320 319 319 316 313 313 315 319 320 315 310 309 306 304 305 305 305 305 306 306 306 307 309 311
300 298 296 297 296 296 297 297 298 299 298 299 302 303 303 300 297 298 301 300 299 297 296 295 297 301 302 300 299 298 302 304 302 302 304 304 304 304 303 303 302 302 306 309 309 309 312 313 311 310 308 306 305 303 305 315 324 320 312 312 314 314 315 315 313 313 315 316 316 316 316 316 317 312 306 304 304 304 304 303 304 306 305 305 306 305 306 309
301 298 296 297 296 296 297 297 298 298 297 301 305 303 301 299 296 298 300 299 298 298 298 297 298 303 304 301 300 299 299 302 302 302 303 301 301 302 301 301 301 300 304 308 309 310 312 313 312 312 308 305 305 304 303 309 320 319 312 311 309 306 309 312 310 308 310 317 315 312 315 315 314 311 305 304 306 306 305 305 306 307 307 308 309 308 306 308
302 299 296 296 296 296 297 297 298 298 299 304 307 301 297 297 295 295 297 297 296 295 298 300 299 300 303 302 302 300 301 302 301 303 304 302 302 302 300 300 301 299 299 303 308 310 312 314 313 311 311 308 303 304 305 304 311 315 312 309 306 305 308 311 313 311 311 315 312 308 312 313 313 314 308 305 308 308 307 306 306 307 309 311 311 309 308 308
301 298 296 296 296 296 296 297 297 298 301 307 306 299 296 296 293 293 294 295 295 294 298 301 298 297 300 301 302 299 300 303 302 301 302 303 304 302 300 300 301 301 298 299 307 310 310 315 315 311 312 310 304 307 311 307 306 310 310 306 305 309 312 311 312 313 313 313 310 307 306 306 310 314 311 308 308 308 308 307 308 310 312 313 311 309 308 308
301 299 298 297 296 296 297 297 297 299 304 307 305 300 296 296 293 292 293 294 294 295 298 299 297 297 298 299 301 299 299 302 301 300 301 303 304 302 299 299 301 301 299 299 306 308 307 314 317 313 312 310 307 307 309 307 305 307 308 304 303 306 308 307 306 309 311 310 308 306 305 305 307 310 309 307 305 304 306 308 310 311 311 311 310 309 309 308
301 301 300 296 296 297 296 296 300 305 306 302 300 298 295 295 294 292 292 294 293 295 298 298 297 298 299 297 298 298 298 299 300 301 302 302 304 302 298 297 299 300 299 301 303 303 306 313 316 314 311 310 307 303 301 302 302 304 306 305 304 302 302 304 302 301 305 308 307 306 306 305 305 305 305 305 303 301 302 306 309 309 308 308 307 307 307 307
300 302 300 296 297 297 296 299 301 299 299 297 296 296 295 296 295 293 292 292 293 293 294 296 297 297 298 299 298 297 298 299 299 300 301 301 304 303 298 295 296 297 300 304 304 303 306 312 313 311 308 308 304 297 295 297 297 300 303 303 303 302 304 307 304 299 300 304 304 305 306 305 303 302 302 302 302 301 300 302 306 306 306 306 305 304 305 306
300 302 299 296 297 297 299 304 295 289 295 297 294 295 296 296 295 294 293 291 293 293 292 295 296 295 297 298 298 297 299 300 299 300 301 300 302 302 297 294 295 295 299 305 305 301 302 307 310 309 305 304 300 294 292 293 293 296 299 298 299 302 305 307 306 303 301 300 299 301 304 305 303 300 299 299 300 299 298 298 302 303 303 303 303 302 302 303
303 301 298 296 297 297 300 304 296 292 296 295 291 292 294 294 294 294 293 293 294 294 294 296 295 295 296 295 296 298 299 301 300 300 301 299 299 299 296 294 295 296 299 304 304 301 302 306 309 309 305 302 298 294 292 292 294 299 299 297 297 299 300 303 305 304 303 301 301 302 304 305 304 300 297 297 297 297 297 298 300 301 301 301 301 301 301 301
302 299 297 296 296 297 301 304 302 299 295 293 294 294 292 292 293 294 294 295 296 294 295 297 294 295 295 293 296 298 298 301 302 299 299 300 299 298 294 294 295 296 299 302 302 302 304 305 308 310 308 305 303 301 301 301 301 302 300 297 296 296 296 300 303 303 303 301 300 303 304 304 304 301 298 298 298 300 299 298 298 301 302 302 301 301 301 300
299 298 299 298 295 297 299 300 303 303 298 297 298 295 294 294 293 293 293 294 294 292 295 296 293 293 294 293 296 297 296 300 303 300 298 299 299 297 295 294 295 296 298 296 296 300 303 301 303 308 307 305 306 305 305 306 303 302 301 298 297 296 297 301 304 305 305 300 297 303 305 304 304 302 301 301 301 302 302 300 299 299 301 301 301 301 301 300
299 300 301 299 297 298 295 292 297 303 302 301 300 296 296 297 294 292 292 292 292 291 293 294 292 294 296 296 299 300 297 297 300 301 300 300 300 297 294 295 295 296 297 295 293 296 300 299 299 305 307 304 304 303 298 299 304 306 305 302 300 297 296 300 305 308 306 302 301 304 303 303 304 303 302 302 302 303 303 302 302 302 302 302 301 301 300 300
300 302 303 301 299 300 297 293 296 300 300 302 301 297 296 298 296 293 292 292 292 291 292 293 293 297 299 299 301 302 299 298 300 301 300 299 299 297 295 295 295 296 298 297 293 296 305 304 298 302 305 299 297 297 291 293 303 306 304 303 302 299 297 301 307 307 304 304 307 304 299 302 305 304 303 303 302 302 302 302 302 301 302 302 301 301 300 299
298 299 299 298 299 302 301 298 298 298 298 299 298 296 297 298 297 297 295 292 291 292 294 296 296 297 299 300 302 302 302 303 303 302 301 299 299 300 299 297 295 295 296 296 294 297 306 306 298 299 302 295 291 292 290 292 297 297 299 302 301 299 300 304 306 303 302 307 309 303 300 302 305 305 304 305 303 302 302 301 300 298 298 300 301 302 302 301
296 297 295 294 299 302 300 297 295 297 300 300 299 297 299 300 298 297 295 294 294 293 294 298 299 298 298 299 301 303 304 305 306 304 303 301 300 301 303 302 298 295 295 297 297 296 301 303 296 296 300 296 292 290 289 291 295 297 299 299 298 299 300 301 303 300 302 306 304 299 299 301 302 303 303 304 303 301 300 299 298 298 298 300 302 303 303 302
298 299 297 297 297 297 296 294 295 298 299 299 300 298 297 300 299 297 294 295 298 296 294 298 300 297 296 298 301 303 303 303 305 305 302 302 303 302 303 304 301 297 297 300 298 297 301 301 295 295 300 299 296 292 289 290 294 300 302 297 295 298 299 299 300 299 301 305 303 300 301 303 304 304 303 303 301 299 300 301 301 301 300 299 301 303 303 303
297 296 297 301 300 296 295 294 294 299 299 299 300 298 297 299 298 297 296 294 296 297 295 299 301 297 294 296 299 301 300 301 303 302 300 301 302 300 299 299 299 300 302 301 299 302 304 300 295 298 303 303 298 295 295 294 295 300 305 301 298 299 301 300 300 299 302 306 306 304 305 308 307 304 303 303 302 302 304 305 305 305 303 301 302 304 304 303
296 295 295 301 302 296 295 294 294 298 301 301 300 298 298 299 296 296 299 296 293 294 294 296 299 298 297 299 301 299 297 298 299 298 297 297 297 295 295 295 296 299 302 301 299 299 300 301 300 299 303 304 299 297 300 301 301 303 304 303 300 299 299 298 298 298 300 303 306 306 308 309 307 303 304 305 305 304 306 306 305 306 306 303 303 303 304 302
Wind_Speed
10 11 11 10 10 10 9 9 8 8 7 7 7 7 8 8 8 8 8 9 9 9 10 10 10 11 12 12 13 12 10 9 7 6 4 1 2 4 6 6 8 9 8 7 6 5 4 4 4 3 4 6 4 5 7 5 3 2 4 11 12 11 12 13 15 10 8 11 12 13 14 13 11 7 5 7 8 10 8 6 6 8 9 13 20 25 23 21
10 10 10 10 10 9 9 9 8 8 7 6 7 7 8 7 7 7 7 8 8 9 10 10 10 10 11 12 12 12 10 9 6 2 1 2 3 5 5 6 8 9 8 6 6 4 4 4 3 2 5 6 4 7 9 5 6 7 5 8 12 11 9 8 12 10 8 11 14 14 14 10 10 10 9 9 10 11 10 8 8 10 12 16 22 23 22 22
10 10 10 10 10 9 9 9 8 7 6 6 6 7 7 7 7 5 6 7 7 8 9 9 9 9 10 11 12 11 10 9 4 1 2 2 3 6 5 7 9 9 8 6 5 4 5 5 3 2 6 6 5 8 9 7 8 8 5 7 10 9 6 3 7 8 8 13 16 15 13 8 9 9 7 9 11 13 11 9 9 12 14 16 19 21 22 21
10 10 10 10 10 9 9 8 8 7 6 6 6 7 6 5 6 5 5 6 7 7 7 7 8 9 10 11 11 11 9 7 2 2 0 1 4 6 7 8 10 10 7 6 6 5 5 3 2 3 6 7 7 9 11 10 7 6 6 7 7 7 6 2 5 7 9 14 15 15 14 11 10 8 8 12 12 11 11 10 10 13 17 16 17 22 22 19
10 10 10 10 10 9 8 8 7 6 6 6 6 6 6 5 5 4 4 5 6 6 6 6 7 8 10 11 11 10 8 5 1 2 2 3 5 6 7 10 10 9 6 6 6 4 3 3 3 3 5 7 9 9 12 13 7 7 6 3 3 9 8 3 5 9 10 12 14 16 15 12 11 8 8 12 9 7 8 8 10 14 17 16 17 22 20 18
10 10 10 10 10 9 9 8 7 6 5 6 6 6 5 5 4 3 4 5 6 5 5 6 6 8 10 10 9 7 6 3 2 2 4 5 7 6 8 10 11 9 6 6 4 3 3 3 4 6 6 7 11 11 12 13 7 6 6 0 1 7 7 6 6 10 12 12 14 15 12 12 13 8 6 6 1 3 7 9 13 15 17 19 19 19 17 16
10 10 10 10 10 10 9 8 7 6 5 6 6 5 5 4 3 3 4 5 6 5 4 5 6 8 10 10 7 3 3 4 2 3 5 6 7 7 10 11 10 8 6 5 5 5 5 5 6 6 6 7 11 13 13 13 9 7 7 5 1 2 5 8 8 10 12 11 11 12 12 13 15 11 6 3 3 5 10 13 17 15 16 20 18 15 13 14
11 11 10 10 10 10 9 8 7 6 5 6 5 5 4 3 3 3 4 5 6 6 4 5 6 7 9 8 6 4 3 2 2 3 6 7 8 10 11 11 10 8 6 6 6 6 5 7 8 5 7 8 8 11 14 14 10 9 8 8 4 2 5 8 8 10 12 10 10 13 13 11 11 10 7 4 3 6 10 15 17 16 15 15 14 13 13 13
11 11 11 10 10 10 10 8 7 7 6 6 4 3 2 2 3 3 4 4 5 6 5 5 5 6 7 5 3 6 3 0 2 4 8 10 11 12 12 10 9 8 6 6 5 6 6 7 8 5 6 7 7 10 15 14 9 9 9 8 6 6 8 9 10 10 11 9 10 14 12 9 7 6 6 4 3 8 11 13 14 16 15 11 10 11 13 13
11 11 11 11 10 10 10 8 7 7 6 5 3 1 1 2 2 3 4 5 6 6 6 5 5 6 6 4 4 5 2 1 4 7 10 12 12 12 10 9 9 7 6 5 5 6 6 5 5 3 4 5 7 9 14 13 6 8 10 9 8 8 7 10 13 11 10 7 8 13 12 9 3 1 3 2 4 9 11 12 12 14 12 9 9 9 11 12
11 12 11 11 11 11 10 8 7 7 6 4 2 1 1 1 2 4 5 6 7 7 7 7 6 6 5 5 5 5 3 3 6 8 10 11 12 11 9 9 8 6 5 5 5 6 5 5 2 3 2 4 6 9 13 10 9 12 13 9 8 9 6 8 14 12 10 6 4 12 14 8 3 2 4 5 8 11 12 13 12 12 9 8 8 7 9 10
12 12 12 11 11 11 10 8 7 7 6 3 1 1 1 1 2 4 5 6 7 8 9 7 6 5 5 6 4 4 4 5 7 9 10 11 10 9 8 8 7 6 5 5 5 4 4 3 4 7 3 2 5 8 8 10 12 13 12 9 7 10 6 5 9 10 8 7 8 12 11 5 3 5 6 6 8 11 13 13 11 11 8 7 7 5 7 9
12 12 12 12 12 11 11 10 7 6 5 3 2 2 2 1 1 3 5 7 9 9 9 7 6 5 5 4 3 4 5 7 9 10 11 11 9 8 9 7 6 6 6 6 4 4 4 3 5 8 3 4 5 3 5 11 11 9 8 6 6 8 5 3 4 6 6 8 10 7 4 4 4 5 6 6 9 12 12 10 9 9 7 6 6 4 4 8
12 12 12 12 12 12 11 10 6 4 4 3 3 2 2 0 1 3 6 8 10 9 8 6 5 4 4 4 3 3 6 9 10 11 12 9 8 8 6 6 6 7 7 7 6 5 4 3 5 6 4 5 4 2 7 11 9 8 7 3 2 4 5 3 2 7 7 7 5 2 4 6 5 4 5 6 11 14 12 10 9 8 7 6 6 5 5 6
12 12 12 13 13 12 11 9 6 3 3 3 3 3 3 1 1 3 7 9 10 9 6 4 3 4 4 3 3 4 8 10 10 12 12 9 8 6 3 5 7 8 8 7 6 4 3 3 4 5 4 4 3 4 9 9 7 7 6 2 1 2 4 4 2 5 6 7 3 3 5 6 6 5 3 4 10 13 12 10 9 9 9 8 7 6 6 6
13 13 13 13 13 12 12 9 5 3 3 4 4 4 3 2 2 5 8 10 11 7 3 3 2 3 3 2 3 5 7 10 13 14 11 8 6 4 4 6 6 5 5 5 5 4 2 3 4 4 4 3 5 7 7 6 6 5 4 4 1 2 4 3 2 2 4 9 3 4 6 7 6 6 5 5 8 11 11 10 10 10 9 8 7 6 6 7
13 13 13 13 13 13 12 9 4 3 3 4 4 4 4 2 3 7 9 10 10 6 3 3 3 3 3 1 5 7 7 13 17 13 8 8 5 4 5 4 2 1 2 2 2 3 2 3 3 3 3 3 6 7 6 5 6 5 4 4 4 4 4 2 2 1 4 8 4 3 7 8 9 9 8 8 9 9 9 10 10 9 8 7 7 7 7 7
13 13 13 13 13 13 12 7 2 2 3 4 4 4 3 4 7 9 8 8 8 5 3 4 5 1 2 4 9 10 12 17 17 9 7 8 5 3 3 1 1 0 3 3 2 3 3 3 3 2 3 3 5 6 6 7 9 10 8 7 6 5 4 3 2 0 4 6 7 8 8 10 12 10 9 9 10 9 8 9 8 8 9 7 7 7 6 7
13 13 13 13 14 13 10 4 1 2 3 4 3 3 4 6 7 6 5 5 4 2 2 3 3 2 5 10 11 13 15 15 10 5 6 7 3 1 2 1 0 1 3 2 3 3 3 3 2 3 4 6 7 3 1 5 10 12 10 9 10 7 3 3 1 3 2 6 9 9 10 13 13 10 9 10 11 10 9 9 7 8 8 7 8 7 6 7
13 13 13 13 13 12 8 1 2 3 4 4 3 1 2 2 3 1 2 3 1 1 3 1 0 2 8 9 10 15 15 8 4 4 7 7 2 2 1 1 1 2 2 1 3 2 3 4 2 2 3 5 4 2 3 5 12 11 10 10 11 9 5 3 1 3 3 3 7 9 13 14 13 11 10 10 12 11 11 10 8 8 7 6 8 9 9 8
13 13 13 13 12 9 4 2 2 4 5 5 3 1 0 1 1 1 2 2 2 1 3 2 3 5 9 10 10 12 7 3 3 2 8 8 1 2 0 1 2 2 1 2 0 1 3 4 0 4 4 6 6 4 2 11 13 10 11 10 8 7 5 2 2 5 4 1 5 9 13 12 11 12 10 10 11 11 11 11 10 9 8 6 7 9 10 8
13 13 13 12 9 5 2 2 3 5 6 5 5 4 4 3 1 1 1 2 1 2 3 3 3 4 8 8 6 5 1 3 3 3 10 9 1 1 1 0 1 1 2 1 2 4 3 2 3 6 5 5 5 3 6 14 12 9 8 7 6 5 5 2 5 6 4 3 4 9 10 8 8 9 8 8 7 6 7 7 8 10 9 8 8 9 9 9
13 13 13 10 6 2 2 3 3 5 6 5 6 7 7 5 4 3 0 2 1 1 2 2 3 4 6 3 2 5 2 3 4 6 11 8 1 2 2 1 2 1 2 3 4 4 4 3 6 6 3 3 0 2 8 12 9 8 7 4 5 5 4 1 3 1 4 2 6 10 8 5 6 7 6 6 4 3 3 2 3 7 9 10 10 9 10 11
13 13 12 8 4 2 3 3 4 6 7 6 7 9 7 5 4 2 0 1 1 1 1 2 3 4 4 2 3 5 2 1 3 6 10 7 2 1 1 2 2 3 3 3 5 4 3 3 7 3 1 3 4 9 9 9 7 7 7 5 6 7 3 3 5 6 4 3 5 8 6 4 4 6 5 4 4 3 4 3 3 5 7 8 9 9 9 10
13 13 10 6 2 3 4 3 4 7 7 6 8 9 7 5 3 1 0 0 1 1 1 1 2 2 4 4 4 4 2 1 2 4 6 6 3 1 1 1 0 3 2 2 6 5 3 6 5 2 3 1 5 7 1 3 7 6 3 5 9 9 7 9 10 7 4 3 2 2 3 2 1 4 5 5 4 4 4 6 7 7 6 6 7 8 9 9
13 12 8 4 2 4 3 2 4 7 5 5 7 7 6 4 3 2 0 1 1 2 4 2 0 3 6 4 4 3 1 1 2 3 4 3 3 1 1 0 0 3 2 0 4 3 4 8 6 3 4 3 5 5 5 2 8 6 1 5 10 10 10 11 8 3 2 4 2 1 2 3 2 3 5 6 7 8 6 8 9 9 8 8 7 7 9 9
12 11 6 2 2 3 2 2 5 5 2 3 6 6 4 2 3 2 2 1 2 2 4 4 2 5 7 6 6 3 1 4 4 2 3 4 3 2 1 1 1 2 1 1 2 2 4 8 7 5 4 4 4 4 5 3 6 5 1 6 11 11 11 9 6 4 4 4 2 1 2 3 4 2 3 4 7 9 9 10 10 9 10 10 9 8 9 10
12 9 3 2 2 2 1 3 5 3 1 4 6 4 3 1 2 0 1 1 2 2 1 2 3 5 7 6 5 2 1 5 4 4 6 6 3 1 2 3 1 3 1 2 3 2 3 6 7 4 4 4 2 1 5 4 5 3 1 7 9 8 8 6 5 6 3 2 3 4 5 2 4 1 2 1 5 8 10 11 11 11 11 11 10 10 11 10
10 6 1 2 3 2 3 5 5 4 3 4 5 4 3 2 1 1 0 1 2 2 1 2 5 5 7 5 4 4 1 2 3 5 8 4 5 3 4 3 1 7 7 4 5 1 1 2 2 2 2 2 3 3 4 4 3 3 6 10 7 5 4 2 4 4 1 1 3 5 6 1 4 1 1 2 4 8 8 8 9 11 11 12 11 11 12 10
9 4 1 1 3 3 4 4 5 5 4 4 5 4 3 2 1 1 2 0 2 2 0 3 4 4 7 5 5 6 4 3 3 5 4 2 3 3 3 2 2 6 9 9 7 1 1 1 2 1 2 1 2 2 3 2 5 8 9 9 6 4 3 2 2 1 1 3 3 5 6 2 3 2 4 4 2 5 6 5 6 9 10 11 11 11 12 11
7 4 1 2 2 3 3 3 4 5 4 5 6 4 2 1 0 2 2 1 1 2 2 3 3 3 6 5 5 7 5 4 5 6 6 3 4 5 4 2 2 2 5 6 5 1 1 2 1 1 2 1 2 3 2 2 7 9 6 4 5 4 1 1 1 2 1 3 3 5 6 4 2 2 4 5 2 2 4 5 7 9 9 10 10 10 11 11
5 3 1 2 2 2 3 4 5 5 5 6 4 2 1 0 1 1 1 2 2 2 2 2 3 4 4 2 4 7 5 4 5 5 5 4 4 6 5 4 2 0 4 4 2 2 2 2 2 0 1 2 2 4 6 5 5 6 4 2 2 2 1 2 2 1 3 3 3 4 5 2 2 3 3 6 4 3 3 3 4 7 8 8 8 9 10 10
4 3 2 3 2 2 4 5 6 6 6 4 2 0 1 1 1 1 2 2 2 2 1 2 4 5 5 3 5 6 3 2 5 5 2 2 3 3 2 5 5 2 2 3 3 4 2 2 5 5 1 2 3 3 5 5 5 5 4 1 1 2 4 4 2 1 2 2 2 3 3 1 2 1 2 4 2 2 2 1 1 2 3 4 5 6 8 10
2 3 3 3 3 3 5 5 5 5 4 2 1 1 3 2 1 2 2 2 1 2 1 2 4 4 2 2 4 5 1 2 4 5 4 3 4 4 2 6 8 3 1 2 2 4 3 2 7 7 2 4 5 2 1 3 4 3 1 1 0 2 2 2 1 1 3 2 1 1 1 1 2 2 2 1 1 2 1 1 1 3 3 2 1 3 6 9
1 2 3 3 3 4 4 5 5 4 3 1 0 2 2 1 2 2 1 2 2 2 1 1 3 2 2 2 2 2 1 2 4 4 5 5 4 5 4 5 9 6 2 1 2 1 2 2 4 2 1 4 4 2 2 1 2 1 1 1 0 2 1 2 2 2 2 2 1 0 1 1 0 2 2 1 0 1 1 2 2 3 3 3 3 4 5 7
1 2 2 2 3 3 4 4 3 2 3 2 1 2 1 1 2 2 1 1 1 2 1 0 2 2 3 2 2 3 1 2 5 4 3 4 1 3 5 4 5 5 3 2 1 0 2 2 3 2 1 2 2 3 2 0 0 1 0 1 2 2 0 3 3 2 0 1 2 1 1 1 2 2 2 2 3 4 4 3 3 3 2 3 4 4 6 6
2 2 2 1 2 2 2 3 2 2 2 0 2 2 0 0 1 1 1 2 1 1 1 1 2 3 2 2 3 6 4 1 4 4 2 2 1 3 5 3 1 3 4 2 1 1 1 3 2 2 1 0 1 1 2 1 1 1 1 2 0 1 1 1 2 2 0 1 2 1 1 1 1 2 3 3 3 5 6 4 3 2 3 4 3 3 5 6
2 2 2 1 1 2 2 2 0 2 1 2 3 2 1 1 1 1 1 1 1 1 1 1 1 1 1 0 2 5 6 3 3 4 2 2 2 2 5 3 1 2 4 3 1 1 1 3 2 0 1 2 1 1 1 1 1 2 2 2 1 0 1 1 1 2 1 2 2 0 1 1 2 1 3 2 2 1 3 3 3 3 2 3 3 3 4 6
3 2 1 1 1 1 2 1 0 1 0 1 2 1 1 1 1 1 1 0 1 2 1 1 1 1 0 1 1 2 4 3 3 2 1 3 2 1 3 3 2 3 4 4 1 1 1 1 2 1 1 2 2 2 1 2 2 2 1 1 1 1 2 2 1 1 0 2 2 1 1 0 0 0 2 3 4 3 0 2 3 2 1 1 2 3 4 5
2 1 0 1 1 1 1 1 1 2 2 1 1 1 0 1 1 1 1 1 1 1 0 1 1 0 0 1 1 1 2 3 2 1 2 2 2 2 3 2 3 6 6 3 1 1 2 0 2 1 1 1 2 3 2 2 2 1 1 1 2 1 1 1 2 2 2 1 1 1 3 2 1 0 1 2 3 3 1 2 1 0 1 0 1 2 3 4
1 0 1 1 1 1 2 4 4 2 2 2 1 1 1 1 1 1 1 1 1 1 1 1 1 0 0 0 0 0 1 2 2 1 1 1 1 2 3 3 3 6 5 2 2 2 2 1 2 1 2 2 2 1 1 1 2 2 2 2 2 1 1 1 3 1 1 1 1 0 3 3 2 1 1 2 1 1 1 2 2 1 1 1 1 1 1 2
1 1 1 1 2 1 2 3 2 1 1 1 1 1 0 1 1 0 1 1 1 1 1 1 1 0 0 0 1 1 1 1 2 1 1 1 2 2 2 3 2 3 3 1 1 2 2 1 3 2 2 1 1 1 1 1 2 2 1 1 1 1 1 2 2 2 1 1 1 1 2 2 2 1 1 2 2 2 2 3 3 2 1 1 1 0 1 2
1 1 1 1 1 1 2 2 0 1 2 0 1 1 1 0 1 0 1 1 1 1 0 0 0 0 0 0 0 1 0 0 1 1 1 1 2 1 2 2 2 3 2 0 0 1 1 1 3 2 1 1 1 1 1 2 2 2 1 2 2 1 2 2 2 1 1 1 1 1 1 2 2 1 1 2 3 4 3 4 4 3 2 1 1 1 1 2
0 1 1 3 2 2 1 0 1 1 1 1 1 2 1 1 1 0 2 1 0 1 1 1 1 1 0 0 0 1 0 0 0 1 1 0 0 1 3 2 3 3 2 2 2 2 1 1 1 1 1 0 1 1 2 1 0 1 1 2 2 2 2 1 1 0 1 1 1 1 2 3 2 1 1 2 2 3 2 4 4 3 2 1 2 2 3 2
1 1 0 3 4 2 0 0 2 3 3 2 3 2 1 1 1 1 2 1 1 0 1 1 0 1 1 0 1 2 1 1 1 0 1 1 1 1 3 2 2 3 2 2 3 3 1 1 1 0 1 1 0 0 0 0 1 1 1 1 2 2 2 1 0 1 1 1 1 2 1 1 1 2 2 1 0 0 1 2 3 3 3 2 2 3 4 3
1 1 0 1 3 3 1 1 2 3 3 4 4 2 1 2 1 1 1 1 1 1 1 1 0 1 1 0 1 2 2 2 2 1 0 1 2 0 1 1 1 1 1 1 3 1 2 2 2 2 1 2 1 1 1 1 2 1 1 1 1 2 2 1 1 2 1 3 2 2 1 2 3 2 2 1 1 0 1 1 1 2 2 3 3 3 4 4
1 1 1 1 0 1 1 0 1 2 3 4 3 3 3 2 1 1 1 1 1 1 1 1 0 1 2 2 1 2 1 2 1 1 1 2 2 1 1 1 2 2 2 1 1 1 2 2 2 2 2 3 2 1 2 1 2 2 2 2 1 0 0 1 2 0 3 2 1 1 2 2 2 0 1 2 2 2 3 2 1 1 1 2 2 2 4 4
0 1 1 1 1 1 1 1 2 2 2 2 1 2 4 3 2 3 2 0 1 2 1 2 1 2 2 2 2 2 1 1 2 1 0 1 2 2 1 1 1 1 0 0 1 1 1 2 1 2 2 2 2 2 2 1 2 2 3 4 3 2 3 3 2 2 4 3 2 3 3 5 5 3 3 4 4 5 6 5 4 2 2 2 2 3 5 6
0 1 1 2 1 1 0 0 4 4 3 2 2 2 4 5 5 3 1 1 1 2 1 1 2 2 2 2 1 2 2 1 1 1 2 1 1 2 1 1 1 1 0 1 2 0 1 2 1 1 2 1 2 2 1 2 2 3 5 5 4 3 4 4 2 1 3 4 2 2 4 9 10 8 9 7 5 5 6 5 4 4 4 3 3 5 6 6
1 1 1 1 2 1 1 1 3 4 1 1 1 3 4 5 6 3 1 2 2 2 3 3 2 2 1 2 1 0 2 2 1 1 4 3 0 1 1 1 1 1 2 2 1 2 2 2 2 1 1 1 0 1 1 1 2 4 5 4 3 2 3 4 2 1 2 4 3 2 4 9 7 5 6 4 1 2 4 4 5 5 3 3 4 5 6 6
2 2 2 2 2 1 1 1 1 2 1 2 2 4 4 6 6 4 2 1 1 2 5 5 6 5 2 3 3 3 1 2 1 2 4 3 1 0 0 1 1 1 1 2 1 3 2 2 2 1 1 1 1 1 2 2 3 6 7 6 6 5 3 3 3 4 5 3 2 2 4 5 2 0 2 1 1 3 4 4 4 4 3 4 6 6 7 7
3 2 1 2 2 1 1 1 0 1 1 2 1 4 4 4 5 5 2 1 0 1 2 3 8 6 1 2 4 3 2 1 1 2 2 3 4 3 1 2 2 2 1 1 1 2 1 2 2 0 1 2 1 2 3 4 3 3 4 3 6 6 4 3 3 5 7 5 4 4 4 1 2 1 1 2 3 3 4 3 3 3 3 4 6 7 7 6
Wind_Direction
9 5 6 4 5 5 356 358 2 360 359 356 355 355 354 355 357 358 3 360 360 6 10 8 358 354 353 349 346 338 333 330 325 326 329 67 48 2 351 330 321 329 336 337 331 325 312 278 277 292 239 202 209 194 173 181 166 147 221 215 215 214 210 202 196 184 138 138 150 164 163 151 151 153 138 136 135 132 126 114 94 74 74 97 110 118 128 135
10 2 2 0 359 2 357 359 1 357 356 352 354 354 350 354 355 358 6 2 4 8 6 4 357 357 353 348 345 333 330 329 323 340 33 85 23 341 333 330 327 331 334 327 324 327 306 287 307 300 227 202 196 187 176 177 183 185 211 222 222 216 208 207 194 166 137 151 150 164 172 153 147 149 156 160 152 151 144 134 126 106 103 111 116 121 129 135
9 359 357 355 354 359 359 1 360 356 354 348 348 346 344 350 351 6 17 7 7 5 1 3 0 359 354 350 343 332 333 321 298 114 96 75 10 330 327 331 329 330 327 312 308 304 288 292 317 263 225 214 200 192 187 180 187 193 196 218 229 216 190 164 174 154 136 146 146 161 164 138 135 137 160 167 158 169 166 152 150 140 136 132 126 129 135 138
4 357 356 355 354 360 360 359 358 355 352 347 344 340 341 347 352 12 20 13 12 4 3 7 6 4 357 351 344 338 333 303 272 105 173 27 354 323 323 328 327 325 319 309 297 285 281 269 252 234 223 219 202 195 194 183 184 188 192 218 221 202 191 151 154 142 131 141 146 157 149 137 146 143 157 155 157 184 185 172 165 153 145 139 136 139 142 139
360 356 355 355 355 357 358 359 355 349 344 341 337 336 337 340 353 14 21 20 15 10 16 14 10 5 358 354 348 344 324 287 71 53 261 310 326 312 319 327 326 321 316 310 293 271 263 231 218 218 223 219 198 196 198 188 182 180 192 242 206 198 197 169 158 139 131 136 140 155 153 145 148 147 163 160 167 185 178 174 161 149 143 140 141 144 144 138
358 356 354 354 354 355 355 353 346 336 331 330 329 330 332 335 350 20 30 21 11 15 27 18 10 359 355 352 348 348 324 304 40 336 294 302 310 311 314 322 324 318 311 301 275 231 230 219 214 208 214 220 204 202 195 186 192 194 191 196 240 220 190 160 161 141 134 138 146 158 148 136 142 143 159 156 149 131 131 140 143 147 143 136 141 147 144 139
356 354 353 353 355 354 350 347 340 330 323 325 325 326 332 337 358 32 28 17 5 2 22 22 9 355 350 348 345 344 297 291 288 304 322 311 307 315 310 317 320 310 299 278 241 227 235 215 215 212 213 221 207 205 194 183 196 205 180 158 190 291 168 157 156 145 138 133 135 142 138 144 152 147 138 95 49 100 116 125 130 139 143 135 140 147 140 138
354 353 352 352 355 353 349 350 343 332 324 322 322 326 339 347 8 29 15 8 357 346 7 19 5 354 349 352 346 315 278 264 268 307 332 319 306 309 309 314 310 301 284 258 239 233 236 218 215 210 213 220 216 212 195 181 193 203 172 150 140 66 142 149 139 137 128 120 119 127 138 146 144 136 122 90 100 121 118 124 127 134 143 138 138 141 137 134
352 351 351 352 353 350 350 352 342 329 322 319 320 329 349 3 9 13 357 346 341 337 345 354 356 351 346 358 342 316 315 145 317 319 322 316 304 306 309 305 299 296 271 250 248 231 226 224 216 214 235 235 237 224 196 185 194 193 164 142 138 131 148 140 123 123 118 123 122 115 122 123 112 114 103 62 112 136 126 124 129 138 143 139 137 140 139 137
350 349 350 351 350 349 350 347 335 324 317 314 314 336 14 25 9 359 344 327 323 322 326 329 335 343 343 344 318 315 333 257 313 320 315 312 306 308 307 298 297 285 259 246 237 219 226 248 231 222 266 259 248 230 203 194 173 145 137 129 136 132 145 144 129 123 114 117 122 116 124 125 87 77 123 95 132 141 131 125 132 140 141 136 135 134 135 136
347 347 349 350 347 349 349 342 331 320 312 307 298 108 85 35 11 350 336 325 320 315 314 313 317 333 331 314 306 311 314 277 308 318 316 315 305 304 301 295 296 268 251 253 232 219 244 271 249 194 228 267 239 223 209 186 136 129 122 110 126 117 117 143 137 141 127 120 147 122 121 122 63 67 132 139 150 149 133 128 139 139 134 132 129 126 127 130
346 347 347 347 346 346 345 336 324 316 305 288 240 141 121 41 9 341 333 328 324 317 310 305 314 327 307 292 284 297 306 291 307 314 313 316 303 297 296 287 282 260 252 262 240 222 253 274 233 214 224 293 220 209 199 156 135 138 121 106 130 120 112 127 139 158 138 135 159 126 115 126 105 110 125 139 154 149 131 129 140 135 130 131 127 126 123 125
344 347 347 344 342 344 343 331 317 311 294 258 190 157 138 67 344 334 334 333 331 321 306 302 315 315 295 294 289 291 297 291 307 315 310 311 299 292 289 271 268 262 254 264 261 241 257 274 245 240 269 280 234 188 159 152 147 140 115 119 143 128 124 100 134 167 134 141 159 136 143 157 119 115 126 144 154 145 133 131 138 131 128 132 126 125 120 130
341 347 346 341 342 343 342 331 316 302 281 224 179 163 152 204 313 330 330 331 334 327 309 303 314 302 278 282 276 278 300 299 308 321 318 313 305 301 280 254 270 269 256 262 266 260 258 250 253 263 266 252 256 133 153 163 159 140 113 115 165 145 134 97 137 171 147 154 174 167 192 168 141 142 137 153 158 147 136 135 139 129 128 133 128 132 134 136
341 345 343 340 342 341 338 330 312 284 251 198 178 165 173 217 289 315 319 324 330 333 318 294 296 294 281 282 264 277 312 317 320 329 329 323 313 308 277 268 283 274 261 260 257 256 249 224 241 257 235 214 236 196 168 158 153 148 132 126 285 157 128 90 124 196 168 154 208 229 166 148 152 161 153 162 159 146 134 136 142 135 136 139 135 139 138 131
341 343 341 339 340 339 335 327 305 259 215 186 174 169 190 230 296 311 317 319 324 331 314 280 266 265 281 323 318 302 319 325 325 331 330 323 314 300 304 299 289 271 258 256 249 241 222 227 243 268 260 218 212 198 160 133 146 159 152 147 166 131 123 104 108 260 173 138 182 234 148 131 154 165 162 166 162 144 130 137 147 144 142 141 141 142 138 134
341 340 338 338 338 336 333 326 295 225 190 175 172 180 205 252 304 312 315 319 323 317 269 277 271 234 217 277 325 317 323 321 323 329 325 322 315 297 316 308 299 314 202 193 219 216 204 224 231 242 248 236 220 198 160 147 149 141 131 122 125 134 131 154 153 238 176 148 149 166 133 126 140 152 163 167 161 145 135 145 151 149 146 143 145 146 144 147
339 338 337 338 336 335 333 325 278 192 168 168 171 185 224 282 299 303 309 319 322 299 246 282 297 265 229 300 321 317 317 316 316 322 326 328 311 295 341 328 318 114 177 173 186 203 208 211 225 223 223 242 227 202 174 167 153 146 146 129 125 135 138 170 180 204 192 159 133 129 124 126 133 143 162 166 158 149 144 148 148 151 148 147 151 147 150 157
336 335 336 337 335 335 333 323 196 147 147 154 159 202 268 296 298 294 309 330 336 319 305 318 339 344 297 304 313 316 316 309 307 325 336 336 309 262 26 16 6 177 195 194 170 194 225 189 195 217 216 230 213 206 237 155 141 143 140 131 135 133 139 177 134 330 220 139 125 135 134 136 141 147 157 160 161 154 146 145 146 154 149 148 157 156 160 163
333 334 335 335 335 336 336 351 131 120 134 138 137 251 293 311 309 310 339 340 66 353 329 325 168 268 293 302 312 325 328 306 290 343 348 351 329 190 132 17 158 190 227 232 162 180 236 177 166 247 232 251 246 311 312 111 114 122 117 117 131 130 140 176 92 332 267 131 110 129 135 141 147 151 154 156 160 156 152 155 155 158 154 152 162 165 171 169
332 334 333 333 336 341 355 91 118 114 127 130 118 72 91 122 328 360 337 308 180 262 296 269 239 258 286 295 312 334 341 290 269 336 359 1 328 196 343 335 199 176 78 316 212 164 224 171 130 313 308 296 306 304 174 108 101 105 110 115 121 127 141 155 344 330 313 58 98 121 132 143 149 150 154 152 158 161 163 167 165 165 161 158 168 169 169 164
333 333 332 333 341 354 44 99 110 117 124 120 109 109 119 130 149 127 329 298 217 248 265 272 261 262 282 279 302 333 306 300 318 9 6 356 327 355 349 207 217 147 115 242 199 160 166 105 5 328 319 295 311 300 138 112 102 97 101 113 114 130 131 60 323 330 6 48 112 128 130 136 143 143 151 156 158 159 165 173 165 165 167 169 176 170 164 160
333 333 332 335 348 26 99 98 108 119 122 122 117 116 119 124 132 135 225 285 284 263 245 291 283 285 303 296 345 335 312 331 338 5 3 352 356 7 341 80 80 117 144 174 165 155 137 45 328 317 302 259 294 148 137 115 107 114 119 121 123 160 159 86 276 359 34 44 130 135 120 109 133 135 147 162 148 130 153 174 161 168 175 179 180 173 166 163
334 333 333 340 4 96 118 101 109 115 116 120 118 120 125 122 117 120 201 257 300 274 230 288 273 277 303 308 338 334 323 327 309 339 358 1 4 329 348 36 80 97 93 120 110 104 100 13 309 279 242 258 157 148 143 121 115 127 134 132 140 169 152 99 149 123 69 58 118 131 110 79 140 149 154 158 138 134 159 179 198 194 183 175 175 177 175 171
334 333 333 347 28 130 129 107 110 115 113 110 117 127 130 114 105 110 282 219 274 282 286 264 219 276 300 287 327 331 292 277 275 306 342 2 353 290 98 16 45 79 56 93 93 82 33 352 321 172 122 360 136 143 153 127 131 123 117 146 152 149 120 116 133 126 101 101 92 104 105 84 150 158 153 147 159 181 182 196 209 205 193 181 177 184 185 180
333 333 333 1 78 140 138 129 123 119 108 108 130 140 134 108 80 65 282 235 293 332 339 339 205 342 337 320 325 308 235 359 339 317 333 4 360 286 159 192 151 69 30 42 100 91 340 339 349 97 106 65 110 110 340 312 140 128 123 151 140 129 125 134 137 124 110 118 101 37 116 126 135 149 144 152 183 192 196 212 214 204 198 199 194 189 187 185
331 333 334 26 103 149 155 172 149 137 108 134 159 153 141 127 67 53 254 262 36 347 325 339 348 337 338 332 322 309 107 336 324 34 13 356 342 250 198 25 40 72 30 228 98 57 326 340 14 57 72 55 85 80 332 300 127 119 234 145 132 125 133 142 125 103 105 104 105 5 4 119 134 138 121 151 187 194 205 216 216 209 204 203 201 194 189 188
330 336 338 64 104 138 149 157 151 143 120 165 176 163 148 127 65 268 257 45 11 326 304 329 322 323 325 324 339 32 88 316 335 33 350 349 2 298 73 36 43 83 354 243 108 55 326 356 14 30 61 57 48 348 304 317 87 92 123 115 115 116 127 137 106 102 115 108 88 8 348 85 124 83 48 135 200 206 213 213 209 210 208 204 200 195 195 192
333 347 5 99 105 108 128 146 144 137 133 155 166 160 152 118 122 213 64 97 303 333 123 327 333 336 325 320 16 41 360 326 17 346 327 360 39 37 66 17 30 76 49 63 99 99 326 13 332 329 54 42 330 301 304 338 68 107 91 85 81 83 91 87 96 109 141 64 59 1 340 71 116 106 165 172 227 219 210 207 207 207 206 204 199 195 194 191
339 6 65 133 125 117 118 124 130 141 141 141 144 135 137 140 199 175 59 44 315 358 231 334 338 318 326 346 27 17 8 15 345 321 334 39 37 43 79 303 279 82 65 72 84 79 290 235 219 7 36 314 315 332 298 289 118 110 96 93 88 73 41 19 65 120 181 71 37 349 333 346 116 173 194 181 221 211 185 180 199 202 203 203 197 192 191 190
348 16 86 148 161 158 139 122 129 148 143 138 144 134 132 187 225 99 72 329 327 341 324 348 332 322 353 17 23 358 356 5 345 355 16 12 8 27 36 320 265 99 70 66 73 96 355 35 80 342 345 326 12 69 106 131 107 92 97 123 102 76 20 55 69 287 111 79 10 347 331 316 119 132 188 187 192 194 179 176 185 193 198 200 196 191 191 191
360 21 78 122 167 182 162 142 136 144 143 141 149 154 187 239 35 77 330 323 337 352 3 343 322 342 345 334 15 355 341 357 360 18 16 350 23 36 31 14 336 340 59 32 6 44 73 72 66 265 235 355 358 114 109 93 87 87 109 139 103 112 105 81 83 3 77 69 355 343 332 323 73 70 152 185 194 176 175 174 175 188 192 192 193 192 190 190
6 31 75 100 130 145 136 139 138 142 148 154 177 165 105 84 61 170 266 322 355 357 353 286 299 315 307 313 14 352 323 358 350 1 4 315 29 58 89 39 1 284 58 24 338 21 78 130 22 21 62 5 360 123 116 108 125 122 125 149 14 106 107 95 100 88 87 75 2 334 326 74 103 64 143 179 180 117 134 153 177 219 213 189 179 185 193 194
12 50 82 98 107 117 123 133 140 150 161 182 216 69 65 64 110 183 240 268 290 318 301 285 293 295 332 25 10 333 329 68 355 347 359 354 21 21 20 31 18 343 13 57 24 18 60 80 15 16 4 349 9 41 69 109 137 139 170 234 295 54 91 119 118 99 104 86 34 328 309 92 113 107 113 115 30 52 166 180 239 268 271 279 219 199 205 201
342 88 99 104 104 105 112 127 145 167 200 225 145 62 76 99 221 199 237 269 250 286 267 304 312 313 38 34 19 354 352 42 9 355 16 25 22 4 346 355 7 356 314 48 70 16 64 45 356 1 337 344 4 354 330 77 125 158 245 258 350 358 33 111 77 54 99 114 85 289 290 321 106 112 94 66 251 234 203 174 211 228 236 258 254 231 217 207
204 132 118 113 109 103 103 125 160 210 240 236 72 52 84 175 229 182 96 329 278 304 274 228 344 8 32 354 6 26 339 351 359 355 41 42 7 359 354 328 353 5 346 21 83 165 87 52 338 339 8 345 10 353 323 339 57 187 164 17 2 319 341 116 93 45 358 141 99 334 262 216 216 163 140 180 195 196 189 188 208 202 199 227 236 225 211 205
178 155 138 111 110 118 115 124 187 236 243 228 82 71 124 229 248 188 37 338 274 326 300 203 2 6 10 344 356 356 342 317 350 357 21 18 16 1 349 328 352 13 352 2 77 355 74 82 24 360 3 319 173 278 291 210 240 296 93 93 107 271 290 105 99 89 80 104 93 317 282 241 230 147 133 156 179 191 189 185 201 198 196 208 211 206 195 193
170 156 120 93 118 157 160 126 184 241 211 60 79 101 190 151 272 251 6 353 252 288 333 101 21 335 274 7 23 346 334 333 360 13 8 357 38 2 333 339 42 31 342 316 341 355 29 71 54 64 318 324 230 195 228 122 62 38 86 124 199 287 72 51 69 103 113 106 110 212 273 270 252 117 85 70 59 188 173 166 198 202 190 191 186 178 175 183
174 176 95 92 162 178 193 186 274 272 137 79 109 138 196 203 253 249 155 79 257 274 359 82 345 316 275 345 21 346 345 7 7 6 13 4 21 20 359 347 309 353 349 319 345 5 308 43 65 120 251 300 342 31 25 6 17 38 108 163 314 10 44 53 42 14 7 127 129 149 153 166 203 26 4 14 9 353 81 163 183 178 178 188 180 170 167 178
164 233 181 170 149 116 145 124 50 34 61 75 155 149 118 227 212 160 174 212 249 271 354 135 199 219 114 296 329 6 19 36 21 360 14 360 353 38 50 31 313 332 337 314 3 7 301 30 99 70 313 299 17 29 6 347 349 331 352 41 60 53 27 83 77 20 342 117 138 131 117 89 56 242 308 346 357 347 319 217 199 182 258 201 148 172 170 176
144 273 197 186 164 128 90 62 45 34 89 90 110 143 140 190 164 127 158 202 254 300 309 117 141 158 155 182 33 86 52 48 42 18 6 360 19 43 46 40 334 323 321 307 32 15 326 28 94 56 17 42 65 36 312 317 328 323 349 17 27 24 280 64 85 85 343 11 318 126 103 74 42 123 263 319 334 326 294 266 274 310 311 342 45 167 175 185
160 259 167 209 222 191 76 58 44 6 106 95 55 109 128 130 141 97 126 164 215 287 303 53 92 91 145 13 31 146 155 56 43 14 352 353 353 2 29 26 321 297 309 322 39 4 314 32 68 58 16 20 59 134 214 261 266 270 318 360 337 314 322 9 59 125 145 78 278 274 78 66 62 121 240 272 281 283 275 259 272 302 315 308 322 335 199 216
176 154 101 360 278 180 88 73 113 19 65 14 321 15 346 80 133 243 276 193 204 254 288 36 168 253 339 258 191 162 212 64 52 334 288 253 306 337 38 9 306 284 312 351 79 17 296 33 62 52 298 268 144 146 200 257 259 244 32 28 348 330 2 12 39 94 157 136 267 261 77 75 96 152 247 243 253 260 241 227 248 278 289 254 245 234 210 194
85 136 85 2 2 192 214 148 154 125 111 161 93 85 352 322 132 247 270 237 188 188 194 138 194 218 60 309 184 99 327 318 130 289 294 184 347 80 85 31 343 338 358 16 356 343 352 5 47 65 50 77 129 167 204 216 287 354 23 8 354 19 32 58 117 162 188 123 337 321 89 93 123 168 226 222 241 251 214 199 214 246 273 224 182 201 200 188
111 125 323 6 38 82 197 207 141 137 136 126 112 122 131 107 152 268 280 229 170 174 168 79 77 132 98 359 48 71 21 357 61 250 291 283 268 92 88 64 358 358 17 4 319 308 29 31 341 335 109 92 98 264 94 96 349 339 323 321 18 42 3 322 184 316 322 113 257 263 99 66 13 43 62 124 269 301 149 171 203 230 253 235 199 192 192 195
149 132 203 3 35 58 70 26 103 130 151 143 125 141 159 125 145 217 264 224 183 164 115 46 25 156 121 215 73 69 26 6 43 95 19 319 293 18 70 78 77 86 129 329 331 350 113 80 15 16 74 59 35 26 30 2 294 297 327 324 15 57 353 305 264 309 49 127 191 239 312 333 333 21 30 330 301 214 158 162 202 227 240 235 224 200 193 203
225 174 150 158 85 68 76 50 120 127 172 172 145 147 158 139 112 159 204 266 225 191 93 66 198 201 171 185 150 89 37 357 38 85 47 314 297 289 254 138 90 108 172 211 323 35 118 95 24 24 37 22 9 27 20 331 279 303 335 318 299 45 23 266 276 331 133 152 267 188 163 276 292 323 272 249 237 248 260 271 288 307 271 255 237 204 200 203
243 156 94 354 272 140 118 177 154 113 112 137 110 126 148 154 166 175 176 77 282 258 212 134 213 243 223 201 164 130 131 41 46 76 216 265 289 317 339 101 65 33 149 57 357 4 84 73 6 351 9 350 341 3 348 286 271 283 279 272 264 213 190 216 248 198 187 225 328 104 169 244 261 258 258 246 244 268 286 301 320 315 256 247 242 225 214 203
38 125 61 355 354 144 317 118 136 128 114 105 112 149 162 176 186 186 137 131 202 266 251 210 220 224 245 257 144 144 185 157 82 239 213 184 313 321 341 38 49 23 325 42 46 24 149 94 74 322 319 305 312 336 324 309 310 280 255 247 243 226 217 235 273 268 243 276 315 128 235 266 262 253 257 262 271 286 294 305 301 274 242 217 222 236 231 216
167 156 138 56 69 106 25 61 140 139 112 6 156 154 166 182 184 180 174 187 189 183 196 215 191 148 9 317 310 243 207 183 123 180 183 167 203 251 240 331 8 38 21 33 34 295 301 72 109 185 270 264 295 308 247 232 263 264 257 231 202 226 250 242 251 230 241 275 270 202 267 277 262 239 255 272 319 293 283 283 274 268 254 225 229 238 235 226
141 103 146 120 94 133 107 97 152 154 180 245 186 154 171 189 185 171 157 198 258 204 196 177 146 124 47 319 280 294 255 189 153 145 167 160 83 77 53 338 303 310 25 41 355 327 353 90 133 154 285 261 70 23 291 262 226 247 267 242 191 186 209 205 202 197 191 197 178 176 252 271 254 134 276 262 173 235 253 262 267 270 253 233 241 245 238 229
148 91 134 125 83 225 171 116 182 213 212 236 160 150 167 168 165 169 166 162 166 303 277 170 141 128 90 245 250 287 321 311 360 62 125 122 99 94 85 66 53 15 5 109 41 354 21 127 138 67 293 263 353 4 314 298 268 236 277 252 190 190 210 215 228 224 206 181 165 196 228 241 76 55 268 215 205 231 244 248 253 259 244 226 232 245 249 242